"Pseudo-MPEC" for P125ubG

Created 2025 Jan 22 23:31:12 UT using Find_Orb

Click here for an explanation of pseudo-MPECs

 
 Astrometry: 
     P125ubG* C2025 01 06.44936309 52 17.589+11 41 46.78   ~193V 22.50wXNEOCPF51
     P125ubG  C2025 01 06.46031709 52 17.073+11 41 51.75   ~193V 22.60wXNEOCPF51
     P125ubG  C2025 01 06.47122209 52 16.592+11 41 55.92   ~193V 22.32wXNEOCPF51

Station data:
(F51) Pan-STARRS 1, Haleakala  (N20.707234 W156.255910)  US/Hawaii.
   Observers J. Bulger, T. Lowe, A. Schultz, M. Willman. Measurers K.
   Chambers, S. Chastel, T. de Boer, L. Denneau, J. Fairlamb, H. Flewelling,
   M. Huber, C.-C. Lin, E. Magnier, Y. Ramanjooloo, R. Wainscoat, R. Weryk.
   1.8-m Ritchey-Chrétien + CCD.

Orbital elements:  P125ubG
   Perihelion 2024 Jun 3.23309 +/- 386 TT =  5:35:38 (JD 2460464.73309)
Epoch 2025 Jan  6.0 TT = JDT 2460681.5   Earth MOID: 0.1729   Ju: 0.3979
M  16.03661981 +/- 80               Ma: 0.0431                   AutoNEOCP
n   0.07398093 +/- 0.187            Peri.  241.62518 +/- 59
a   5.61982540 +/- 9.47             Node   137.08545 +/- 9
e   0.8120665 +/- 0.228             Incl.   13.25373 +/- 52
P  13.32245                H 17.69  G  0.15   U 11.6  SR
q 1.05615336 +/- 1.36    Q 10.1834974 +/- 34.3            (J2000 ecliptic)
From 3 observations 2025 Jan. 6 (31.5 min); mean residual 0".15
Residuals in arcseconds: 
250106 F51  .08+  .13-    250106 F51  .16-  .26+    250106 F51  .08+  .13-    

Ephemerides (geocentric):
Date (UTC) HH   RA             Dec           delta  r     elong  mag " sig PA
---- --------  ------------   ------------  ------ ------ -----  --- --------
2025 01 23 00  09 37 46.548   +13 47 07.70  2.1055 3.0517 160.7 22.2  38d  97
2025 01 23 01  09 37 44.092   +13 47 27.58  2.1056 3.0521 160.7 22.2  38d  97
2025 01 23 02  09 37 41.635   +13 47 47.46  2.1058 3.0525 160.8 22.2  38d  97
2025 01 23 03  09 37 39.178   +13 48 07.35  2.1059 3.0529 160.8 22.2  38d  97
2025 01 23 04  09 37 36.719   +13 48 27.23  2.1061 3.0532 160.9 22.2  38d  97
2025 01 23 05  09 37 34.260   +13 48 47.12  2.1063 3.0536 160.9 22.2  39d  97
2025 01 23 06  09 37 31.799   +13 49 07.01  2.1064 3.0540 161.0 22.2  39d  97
2025 01 23 07  09 37 29.338   +13 49 26.90  2.1066 3.0543 161.1 22.2  39d  97
2025 01 23 08  09 37 26.876   +13 49 46.79  2.1068 3.0547 161.1 22.2  39d  97
2025 01 23 09  09 37 24.414   +13 50 06.68  2.1069 3.0551 161.2 22.2  39d  97
2025 01 23 10  09 37 21.950   +13 50 26.57  2.1071 3.0555 161.2 22.2  39d  97
2025 01 23 11  09 37 19.486   +13 50 46.46  2.1073 3.0558 161.3 22.2  39d  97
2025 01 23 12  09 37 17.021   +13 51 06.35  2.1074 3.0562 161.3 22.2  39d  97
2025 01 23 13  09 37 14.555   +13 51 26.25  2.1076 3.0566 161.4 22.2  39d  97
2025 01 23 14  09 37 12.089   +13 51 46.14  2.1078 3.0570 161.4 22.2  39d  97
2025 01 23 15  09 37 09.622   +13 52 06.04  2.1079 3.0573 161.5 22.2  39d  97
2025 01 23 16  09 37 07.153   +13 52 25.93  2.1081 3.0577 161.5 22.2  39d  97
2025 01 23 17  09 37 04.685   +13 52 45.83  2.1083 3.0581 161.6 22.2  39d  97
2025 01 23 18  09 37 02.215   +13 53 05.73  2.1084 3.0585 161.6 22.2  39d  97
2025 01 23 19  09 36 59.745   +13 53 25.63  2.1086 3.0588 161.7 22.2  39d  97
2025 01 23 20  09 36 57.273   +13 53 45.53  2.1088 3.0592 161.7 22.2  39d  97
2025 01 23 21  09 36 54.802   +13 54 05.43  2.1089 3.0596 161.8 22.2  39d  97
2025 01 23 22  09 36 52.329   +13 54 25.33  2.1091 3.0600 161.9 22.2  39d  97
2025 01 23 23  09 36 49.856   +13 54 45.23  2.1093 3.0603 161.9 22.2  39d  97
2025 01 24 00  09 36 47.381   +13 55 05.13  2.1095 3.0607 162.0 22.2  39d  97
2025 01 24 01  09 36 44.907   +13 55 25.03  2.1096 3.0611 162.0 22.2  40d  97
2025 01 24 02  09 36 42.431   +13 55 44.93  2.1098 3.0614 162.1 22.2  40d  97
2025 01 24 03  09 36 39.955   +13 56 04.84  2.1100 3.0618 162.1 22.2  40d  97
2025 01 24 04  09 36 37.478   +13 56 24.74  2.1102 3.0622 162.2 22.2  40d  97
2025 01 24 05  09 36 35.000   +13 56 44.64  2.1103 3.0626 162.2 22.2  40d  97
2025 01 24 06  09 36 32.522   +13 57 04.55  2.1105 3.0629 162.3 22.2  40d  97
2025 01 24 07  09 36 30.042   +13 57 24.45  2.1107 3.0633 162.3 22.2  40d  97
2025 01 24 08  09 36 27.563   +13 57 44.36  2.1109 3.0637 162.4 22.2  40d  97
2025 01 24 09  09 36 25.082   +13 58 04.26  2.1110 3.0641 162.4 22.2  40d  97
2025 01 24 10  09 36 22.601   +13 58 24.17  2.1112 3.0644 162.5 22.2  40d  97
2025 01 24 11  09 36 20.119   +13 58 44.07  2.1114 3.0648 162.6 22.2  40d  97
2025 01 24 12  09 36 17.636   +13 59 03.98  2.1116 3.0652 162.6 22.2  40d  97
2025 01 24 13  09 36 15.153   +13 59 23.89  2.1118 3.0655 162.7 22.2  40d  97
2025 01 24 14  09 36 12.669   +13 59 43.79  2.1119 3.0659 162.7 22.2  40d  97
2025 01 24 15  09 36 10.184   +14 00 03.70  2.1121 3.0663 162.8 22.2  40d  97
2025 01 24 16  09 36 07.699   +14 00 23.61  2.1123 3.0667 162.8 22.2  40d  97
2025 01 24 17  09 36 05.213   +14 00 43.51  2.1125 3.0670 162.9 22.2  40d  97
2025 01 24 18  09 36 02.726   +14 01 03.42  2.1127 3.0674 162.9 22.2  40d  97
2025 01 24 19  09 36 00.239   +14 01 23.32  2.1128 3.0678 163.0 22.2  40d  97
2025 01 24 20  09 35 57.751   +14 01 43.23  2.1130 3.0682 163.0 22.2  40d  97
2025 01 24 21  09 35 55.263   +14 02 03.14  2.1132 3.0685 163.1 22.2  40d  97
2025 01 24 22  09 35 52.773   +14 02 23.04  2.1134 3.0689 163.1 22.2  41d  97
2025 01 24 23  09 35 50.283   +14 02 42.95  2.1136 3.0693 163.2 22.2  41d  97